Location: Newark
(44.9333°N, 0.5667°E)
Time: 12:47:30
(UTC+00:00)

UWE-3 - Pass Details

Date: 23 February 2020
Orbit: 585 x 683 km, 97.6° (Epoch: 03 April)

Event Time Altitude Azimuth Distance (km) Brightness Sun altitude
Rises 05:53:24 0° 8° (N) 3,036 ? -10.2°
Reaches altitude 10° 05:55:39 10° 4° (N) 2,125 ? -9.8°
Maximum altitude 06:00:13 56° 287° (WNW) 810 ? -9.0°
Drops below altitude 10° 06:04:46 10° 210° (SSW) 2,121 ? -8.2°
Sets 06:07:02 0° 206° (SSW) 3,029 ? -7.8°
